Location: Baia Mare
(47.6567°N, 23.5850°E)
Time: 11:05:16
(UTC+03:00)

ISS - Pass Details

Date: 19 July 2018
Orbit: 402 x 408 km, 51.6° (Epoch: 19 July)

Event Time Altitude Azimuth Distance (km) Brightness Sun altitude
Rises 02:31:23 0° 284° (WNW) 2,328 0.0 -20.2°
Reaches altitude 10° 02:33:33 10° 292° (WNW) 1,468 -0.9 -20.1°
Maximum altitude 02:36:41 40° 3° (N) 621 -2.4 -19.9°
Drops below altitude 10° 02:39:49 10° 75° (ENE) 1,470 -0.6 -19.8°
Sets 02:41:59 0° 83° (E) 2,331 0.4 -19.7°
